| time (UTC) | temp F | wind direction | speed MPH | gust MPH | rain 1hr in | rain 24hr in | rain mn in | humidity % | barometer mb |
| 20260506223838 | 47 | 339 | 2.0 | 3.0 | 0.00 | 0.38 | 0.00 | 98 | 1012.5 |
| 20260506221838 | 47 | 327 | 2.0 | 5.0 | 0.00 | 0.40 | 0.00 | 98 | 1012.3 |
| 20260506221337 | 47 | 297 | 2.0 | 5.0 | 0.00 | 0.40 | 0.00 | 98 | 1012.3 |
| 20260506220837 | 47 | 23 | 2.0 | 5.0 | 0.00 | 0.40 | 0.00 | 98 | 1012.1 |
| 20260506220338 | 47 | 14 | 2.0 | 5.0 | 0.00 | 0.40 | 0.00 | 98 | 1012.1 |
| 20260506215338 | 47 | 341 | 2.0 | 7.0 | 0.00 | 0.41 | 0.41 | 97 | 1012.0 |
| 20260506214838 | 47 | 39 | 2.0 | 6.0 | 0.00 | 0.41 | 0.41 | 97 | 1012.0 |
| 20260506214337 | 47 | 323 | 2.0 | 6.0 | 0.00 | 0.41 | 0.41 | 97 | 1012.0 |
| 20260506213838 | 47 | 14 | 2.0 | 6.0 | 0.00 | 0.42 | 0.41 | 97 | 1011.9 |
| 20260506213337 | 47 | 359 | 2.0 | 5.0 | 0.00 | 0.42 | 0.41 | 97 | 1011.9 |
| 20260506211838 | 47 | 0 | 2.0 | 5.0 | 0.00 | 0.44 | 0.41 | 97 | 1011.8 |
| 20260506211337 | 47 | 336 | 1.0 | 6.0 | 0.00 | 0.44 | 0.41 | 97 | 1011.8 |
| 20260506210837 | 47 | 336 | 1.0 | 5.0 | 0.00 | 0.45 | 0.41 | 97 | 1011.8 |
| 20260506210337 | 47 | 324 | 1.0 | 5.0 | 0.00 | 0.46 | 0.41 | 97 | 1011.8 |
| 20260506205841 | 47 | 328 | 1.0 | 5.0 | 0.00 | 0.46 | 0.41 | 97 | 1011.8 |
| 20260506205338 | 47 | 316 | 1.0 | 3.0 | 0.00 | 0.47 | 0.41 | 97 | 1011.8 |
| 20260506204337 | 47 | 1 | 2.0 | 2.0 | 0.00 | 0.48 | 0.41 | 97 | 1011.8 |
| 20260506202337 | 47 | 10 | 1.0 | 5.0 | 0.00 | 0.49 | 0.41 | 97 | 1011.7 |
| 20260506201338 | 47 | 350 | 1.0 | 5.0 | 0.00 | 0.50 | 0.41 | 97 | 1011.7 |
| 20260506200837 | 47 | 343 | 1.0 | 2.0 | 0.00 | 0.51 | 0.41 | 97 | 1011.6 |
| 20260506200337 | 47 | 341 | 1.0 | 2.0 | 0.00 | 0.51 | 0.41 | 97 | 1011.6 |
| 20260506195337 | 47 | 331 | 2.0 | 5.0 | 0.00 | 0.52 | 0.41 | 97 | 1011.5 |
| 20260506194337 | 47 | 349 | 2.0 | 5.0 | 0.00 | 0.53 | 0.41 | 97 | 1011.5 |
| 20260506193837 | 47 | 35 | 2.0 | 6.0 | 0.00 | 0.54 | 0.41 | 97 | 1011.4 |
| 20260506193337 | 47 | 337 | 2.0 | 5.0 | 0.00 | 0.54 | 0.41 | 97 | 1011.4 |
| 20260506192840 | 47 | 337 | 1.0 | 5.0 | 0.00 | 0.55 | 0.41 | 97 | 1011.4 |
| 20260506192338 | 47 | 341 | 0.0 | 5.0 | 0.00 | 0.55 | 0.41 | 97 | 1011.2 |
| 20260506191838 | 47 | 322 | 0.0 | 3.0 | 0.00 | 0.56 | 0.41 | 97 | 1011.2 |
| 20260506191338 | 47 | 39 | 0.0 | 2.0 | 0.00 | 0.56 | 0.41 | 97 | 1011.2 |
| 20260506190837 | 47 | 39 | 0.0 | 2.0 | 0.00 | 0.57 | 0.41 | 97 | 1011.1 |
| 20260506190337 | 47 | 39 | 0.0 | 2.0 | 0.00 | 0.57 | 0.41 | 96 | 1011.1 |
| 20260506185839 | 47 | 39 | 0.0 | 1.0 | 0.00 | 0.58 | 0.41 | 96 | 1011.1 |
| 20260506184338 | 47 | 39 | 1.0 | 0.0 | 0.00 | 0.60 | 0.41 | 96 | 1011.1 |
| 20260506183837 | 47 | 39 | 1.0 | 3.0 | 0.00 | 0.60 | 0.41 | 96 | 1011.0 |
| 20260506182841 | 47 | 36 | 0.0 | 3.0 | 0.00 | 0.61 | 0.41 | 96 | 1011.0 |
| 20260506182338 | 47 | 36 | 0.0 | 3.0 | 0.00 | 0.61 | 0.41 | 96 | 1010.9 |
| 20260506181338 | 48 | 352 | 2.0 | 3.0 | 0.00 | 0.62 | 0.41 | 96 | 1010.9 |
| 20260506180838 | 48 | 270 | 1.0 | 5.0 | 0.00 | 0.63 | 0.41 | 96 | 1010.7 |
| 20260506180338 | 48 | 313 | 0.0 | 3.0 | 0.00 | 0.63 | 0.41 | 96 | 1010.7 |
| 20260506175841 | 47 | 313 | 0.0 | 2.0 | 0.00 | 0.64 | 0.41 | 96 | 1010.7 |
| 20260506174837 | 47 | 325 | 0.0 | 1.0 | 0.00 | 0.65 | 0.41 | 96 | 1010.6 |
| 20260506173351 | 47 | 37 | 1.0 | 2.0 | 0.00 | 0.67 | 0.41 | 96 | 1010.3 |
| 20260506170837 | 48 | 336 | 2.0 | 8.0 | 0.00 | 0.69 | 0.41 | 95 | 1010.2 |
| 20260506165840 | 48 | 347 | 2.0 | 6.0 | 0.00 | 0.71 | 0.41 | 95 | 1010.2 |
| 20260506165337 | 48 | 340 | 1.0 | 6.0 | 0.00 | 0.71 | 0.41 | 95 | 1010.1 |
| 20260506164338 | 48 | 36 | 2.0 | 3.0 | 0.00 | 0.72 | 0.41 | 95 | 1010.1 |
| 20260506162841 | 48 | 342 | 1.0 | 2.0 | 0.00 | 0.73 | 0.41 | 96 | 1010.1 |
| 20260506161338 | 48 | 47 | 2.0 | 2.0 | 0.00 | 0.73 | 0.41 | 96 | 1010.1 |
| 20260506160837 | 48 | 41 | 1.0 | 6.0 | 0.00 | 0.73 | 0.41 | 95 | 1010.0 |
| 20260506160337 | 48 | 23 | 1.0 | 5.0 | 0.00 | 0.73 | 0.41 | 96 | 1010.0 |
| 20260506155841 | 48 | 144 | 1.0 | 5.0 | 0.00 | 0.73 | 0.41 | 96 | 1010.0 |
| 20260506155337 | 48 | 30 | 0.0 | 5.0 | 0.00 | 0.73 | 0.41 | 96 | 1010.0 |
| 20260506153837 | 48 | 41 | 3.0 | 3.0 | 0.00 | 0.73 | 0.41 | 96 | 1009.9 |
| 20260506153337 | 47 | 344 | 3.0 | 5.0 | 0.00 | 0.73 | 0.41 | 96 | 1009.9 |
| 20260506152842 | 47 | 346 | 3.0 | 7.0 | 0.00 | 0.73 | 0.41 | 96 | 1009.9 |
| 20260506151843 | 48 | 343 | 3.0 | 10.0 | 0.00 | 0.73 | 0.41 | 96 | 1009.8 |
| 20260506150337 | 48 | 27 | 2.0 | 10.0 | 0.02 | 0.73 | 0.41 | 96 | 1009.8 |
| 20260506145838 | 48 | 5 | 2.0 | 7.0 | 0.02 | 0.73 | 0.41 | 96 | 1009.8 |
| 20260506145338 | 48 | 6 | 2.0 | 5.0 | 0.02 | 0.73 | 0.41 | 96 | 1009.8 |
| 20260506144837 | 48 | 347 | 2.0 | 3.0 | 0.02 | 0.73 | 0.41 | 96 | 1009.8 |
| 20260506143837 | 48 | 354 | 2.0 | 8.0 | 0.02 | 0.73 | 0.41 | 96 | 1009.7 |
| 20260506143337 | 48 | 333 | 2.0 | 5.0 | 0.02 | 0.73 | 0.41 | 96 | 1009.7 |
| 20260506142839 | 48 | 315 | 2.0 | 6.0 | 0.02 | 0.73 | 0.41 | 96 | 1009.7 |
| 20260506140838 | 48 | 32 | 2.0 | 7.0 | 0.00 | 0.71 | 0.39 | 96 | 1009.7 |
| 20260506135337 | 48 | 324 | 2.0 | 10.0 | 0.01 | 0.71 | 0.39 | 96 | 1009.7 |
| 20260506134338 | 48 | 324 | 3.0 | 8.0 | 0.01 | 0.71 | 0.39 | 96 | 1009.7 |
| 20260506132841 | 48 | 348 | 3.0 | 9.0 | 0.02 | 0.71 | 0.39 | 96 | 1009.7 |
| 20260506132339 | 48 | 45 | 3.0 | 8.0 | 0.02 | 0.71 | 0.39 | 96 | 1009.5 |
| 20260506131838 | 48 | 27 | 3.0 | 9.0 | 0.02 | 0.71 | 0.39 | 96 | 1009.5 |
| 20260506131337 | 48 | 342 | 3.0 | 9.0 | 0.02 | 0.71 | 0.39 | 96 | 1009.5 |
| 20260506125337 | 49 | 357 | 5.0 | 9.0 | 0.01 | 0.70 | 0.38 | 96 | 1009.1 |
| 20260506124337 | 50 | 337 | 2.0 | 8.0 | 0.01 | 0.70 | 0.38 | 96 | 1009.1 |
| 20260506123837 | 50 | 4 | 2.0 | 5.0 | 0.01 | 0.70 | 0.38 | 96 | 1009.0 |
| 20260506123338 | 50 | 326 | 2.0 | 10.0 | 0.00 | 0.69 | 0.37 | 97 | 1009.0 |
| 20260506122841 | 49 | 342 | 2.0 | 6.0 | 0.00 | 0.69 | 0.37 | 97 | 1009.0 |
| 20260506121837 | 49 | 347 | 2.0 | 7.0 | 0.00 | 0.69 | 0.37 | 96 | 1008.9 |
| 20260506120338 | 49 | 320 | 3.0 | 8.0 | 0.00 | 0.69 | 0.37 | 96 | 1008.8 |
| 20260506114838 | 49 | 9 | 3.0 | 5.0 | 0.00 | 0.70 | 0.37 | 97 | 1008.7 |
| 20260506113838 | 49 | 12 | 3.0 | 5.0 | 0.00 | 0.70 | 0.37 | 97 | 1008.6 |
| 20260506112840 | 49 | 340 | 4.0 | 7.0 | 0.00 | 0.70 | 0.37 | 97 | 1008.6 |
| 20260506111837 | 49 | 323 | 5.0 | 7.0 | 0.00 | 0.70 | 0.37 | 97 | 1008.6 |
| 20260506110338 | 49 | 358 | 3.0 | 15.0 | 0.01 | 0.70 | 0.37 | 97 | 1008.5 |
| 20260506105840 | 49 | 27 | 3.0 | 7.0 | 0.01 | 0.70 | 0.37 | 97 | 1008.5 |
| 20260506105338 | 49 | 1 | 2.0 | 7.0 | 0.01 | 0.70 | 0.37 | 97 | 1008.5 |
| 20260506103838 | 49 | 313 | 3.0 | 10.0 | 0.01 | 0.70 | 0.37 | 98 | 1008.5 |
| 20260506103338 | 49 | 2 | 3.0 | 12.0 | 0.02 | 0.70 | 0.37 | 98 | 1008.5 |
| 20260506102841 | 49 | 25 | 3.0 | 8.0 | 0.02 | 0.70 | 0.37 | 98 | 1008.5 |
| 20260506101838 | 49 | 347 | 4.0 | 9.0 | 0.03 | 0.70 | 0.37 | 98 | 1008.4 |
| 20260506100838 | 49 | 306 | 3.0 | 7.0 | 0.02 | 0.70 | 0.37 | 98 | 1008.3 |
| 20260506095337 | 49 | 14 | 5.0 | 8.0 | 0.05 | 0.70 | 0.37 | 98 | 1008.2 |
| 20260506094837 | 49 | 332 | 5.0 | 6.0 | 0.05 | 0.70 | 0.37 | 98 | 1008.2 |
| 20260506093837 | 49 | 23 | 3.0 | 8.0 | 0.06 | 0.70 | 0.37 | 98 | 1008.1 |
| 20260506092841 | 49 | 339 | 3.0 | 9.0 | 0.06 | 0.69 | 0.35 | 98 | 1008.1 |
| 20260506092337 | 49 | 2 | 3.0 | 9.0 | 0.07 | 0.69 | 0.35 | 98 | 1008.0 |
| 20260506085839 | 49 | 339 | 3.0 | 8.0 | 0.08 | 0.67 | 0.33 | 99 | 1007.9 |
| 20260506085337 | 49 | 346 | 2.0 | 7.0 | 0.06 | 0.65 | 0.31 | 98 | 1007.8 |
| 20260506084837 | 49 | 20 | 2.0 | 6.0 | 0.07 | 0.65 | 0.31 | 99 | 1007.8 |
| 20260506084338 | 49 | 351 | 2.0 | 6.0 | 0.06 | 0.63 | 0.30 | 99 | 1007.8 |
| 20260506083837 | 49 | 331 | 2.0 | 6.0 | 0.07 | 0.63 | 0.30 | 99 | 1007.7 |
| 20260506082337 | 49 | 244 | 2.0 | 5.0 | 0.07 | 0.61 | 0.28 | 99 | 1007.6 |
| 20260506081337 | 49 | 8 | 2.0 | 5.0 | 0.06 | 0.61 | 0.28 | 99 | 1007.6 |
| 20260506080837 | 49 | 353 | 2.0 | 5.0 | 0.06 | 0.61 | 0.28 | 99 | 1007.6 |
| 20260506080336 | 49 | 334 | 2.0 | 6.0 | 0.06 | 0.59 | 0.26 | 99 | 1007.6 |
| 20260506073338 | 48 | 19 | 2.0 | 3.0 | 0.03 | 0.56 | 0.23 | 99 | 1007.3 |
| 20260506072337 | 48 | 344 | 2.0 | 7.0 | 0.01 | 0.54 | 0.21 | 99 | 1007.3 |
| 20260506071337 | 48 | 315 | 2.0 | 5.0 | 0.01 | 0.54 | 0.21 | 99 | 1007.3 |
| 20260506070838 | 48 | 23 | 2.0 | 6.0 | 0.01 | 0.54 | 0.21 | 99 | 1007.1 |
| 20260506070337 | 48 | 329 | 2.0 | 7.0 | 0.00 | 0.54 | 0.20 | 99 | 1007.1 |
| 20260506062337 | 48 | 354 | 3.0 | 6.0 | 0.00 | 0.54 | 0.20 | 99 | 1006.9 |
| 20260506061338 | 48 | 322 | 2.0 | 8.0 | 0.01 | 0.54 | 0.20 | 99 | 1006.9 |
| 20260506050837 | 48 | 328 | 2.0 | 5.0 | 0.03 | 0.52 | 0.19 | 99 | 1007.0 |
| 20260506050336 | 48 | 313 | 2.0 | 5.0 | 0.03 | 0.52 | 0.19 | 99 | 1007.0 |
| 20260506044837 | 48 | 343 | 2.0 | 6.0 | 0.03 | 0.52 | 0.19 | 99 | 1007.0 |
| 20260506043837 | 48 | 321 | 2.0 | 5.0 | 0.04 | 0.52 | 0.19 | 99 | 1006.9 |
| 20260506043336 | 48 | 340 | 2.0 | 5.0 | 0.04 | 0.52 | 0.19 | 99 | 1006.9 |
| 20260506042838 | 48 | 33 | 2.0 | 5.0 | 0.03 | 0.52 | 0.19 | 99 | 1006.9 |
| 20260506042336 | 48 | 35 | 2.0 | 3.0 | 0.03 | 0.52 | 0.19 | 99 | 1006.9 |
| 20260506040338 | 48 | 322 | 2.0 | 5.0 | 0.02 | 0.49 | 0.16 | 99 | 1007.0 |
| 20260506035840 | 48 | 357 | 2.0 | 5.0 | 0.02 | 0.49 | 0.16 | 99 | 1007.0 |
| 20260506033337 | 49 | 336 | 2.0 | 6.0 | 0.02 | 0.48 | 0.15 | 99 | 1006.9 |
| 20260506030337 | 49 | 2 | 2.0 | 5.0 | 0.02 | 0.47 | 0.14 | 99 | 1007.1 |
| 20260506025839 | 49 | 327 | 2.0 | 5.0 | 0.02 | 0.47 | 0.14 | 98 | 1007.1 |
| 20260506025336 | 49 | 17 | 2.0 | 6.0 | 0.04 | 0.47 | 0.14 | 98 | 1007.3 |
| 20260506024337 | 49 | 20 | 0.0 | 5.0 | 0.03 | 0.46 | 0.13 | 98 | 1007.3 |
| 20260506021837 | 49 | 344 | 1.0 | 5.0 | 0.04 | 0.45 | 0.12 | 98 | 1007.3 |
| 20260506020837 | 49 | 10 | 2.0 | 5.0 | 0.05 | 0.45 | 0.12 | 98 | 1007.4 |
| 20260506020337 | 49 | 350 | 2.0 | 5.0 | 0.05 | 0.45 | 0.12 | 98 | 1007.4 |
| 20260506015839 | 49 | 17 | 2.0 | 5.0 | 0.06 | 0.45 | 0.12 | 98 | 1007.4 |
| 20260506015336 | 49 | 5 | 2.0 | 5.0 | 0.04 | 0.43 | 0.10 | 98 | 1007.4 |
| 20260506014336 | 49 | 43 | 2.0 | 5.0 | 0.04 | 0.43 | 0.10 | 98 | 1007.4 |
| 20260506011836 | 49 | 324 | 1.0 | 5.0 | 0.03 | 0.41 | 0.08 | 98 | 1007.5 |
| 20260506010337 | 49 | 322 | 2.0 | 5.0 | 0.02 | 0.40 | 0.07 | 98 | 1007.6 |
| 20260506005337 | 49 | 330 | 1.0 | 5.0 | 0.01 | 0.39 | 0.06 | 98 | 1007.6 |
| 20260506003337 | 49 | 331 | 2.0 | 2.0 | 0.02 | 0.39 | 0.06 | 98 | 1007.8 |
| 20260506002337 | 49 | 348 | 0.0 | 5.0 | 0.01 | 0.38 | 0.05 | 98 | 1008.0 |
| 20260506001836 | 49 | 2 | 2.0 | 3.0 | 0.01 | 0.38 | 0.05 | 98 | 1008.0 |
| 20260506000836 | 49 | 0 | 1.0 | 5.0 | 0.01 | 0.38 | 0.05 | 98 | 1008.1 |
| 20260505235840 | 49 | 36 | 2.0 | 5.0 | 0.02 | 0.38 | 0.05 | 98 | 1008.1 |
| 20260505234837 | 49 | 338 | 2.0 | 3.0 | 0.01 | 0.37 | 0.04 | 98 | 1008.2 |
| 20260505234337 | 50 | 334 | 2.0 | 6.0 | 0.01 | 0.37 | 0.04 | 98 | 1008.2 |
| 20260505233837 | 50 | 341 | 2.0 | 5.0 | 0.01 | 0.37 | 0.04 | 98 | 1008.3 |
| 20260505232839 | 50 | 13 | 2.0 | 3.0 | 0.01 | 0.37 | 0.04 | 98 | 1008.3 |
| 20260505232337 | 50 | 356 | 2.0 | 5.0 | 0.01 | 0.37 | 0.04 | 98 | 1008.3 |
| 20260505231836 | 50 | 342 | 2.0 | 7.0 | 0.03 | 0.37 | 0.04 | 98 | 1008.3 |
| 20260505230336 | 50 | 14 | 2.0 | 5.0 | 0.02 | 0.36 | 0.03 | 98 | 1008.4 |
| 20260505225336 | 50 | 25 | 2.0 | 7.0 | 0.03 | 0.36 | 0.03 | 98 | 1008.5 |